Location: DARK SKY Beskydy - Park tmavé oblohy, www.darkskybeskydy.cz
(49.4926°N, 18.5016°E)
Time: 04:09:38
(UTC+01:00)

N. Korean satellite - Pass Details

Date: 15 December 2022
Orbit: 407 x 441 km, 97.3° (Epoch: 05 February)

Event Time Altitude Azimuth Distance (km) Brightness Sun altitude
Rises 17:06:00 0° 203° (SSW) 2,482 10.9 -12.1°
Reaches altitude 10° 17:08:30 10° 222° (SW) 1,617 10.3 -12.5°
Maximum altitude 17:10:58 18° 268° (W) 1,207 9.6 -12.8°
Drops below altitude 10° 17:13:28 10° 313° (NW) 1,630 9.6 -13.2°
Sets 17:16:01 0° 333° (NNW) 2,510 10.3 -13.6°
